Location: Albany
(42.6530°N, 73.7570°W)
Time: 18:44:46
(UTC-04:00)

ISS - Visible Passes

Search period start: 20 October 2020 00:00
Search period end: 30 October 2020 00:00
Orbit: 418 x 420 km, 51.6° (Epoch: 20 October)

Date Brightness Start Highest point End Pass type
(mag) Time Alt. Az. Time Alt. Az. Time Alt. Az.
20 Oct -0.4 06:16:41 10° SE 06:17:28 11° SE 06:18:16 10° ESE visible
22 Oct -1.8 06:15:27 10° SSW 06:18:24 29° SE 06:21:23 10° ENE visible
23 Oct -1.1 05:28:36 11° S 05:30:49 18° SE 05:33:10 10° E visible
24 Oct -0.5 04:43:38 10° ESE 04:43:38 10° ESE 04:43:57 10° ESE visible
24 Oct -3.7 06:16:37 13° SW 06:19:33 84° SSE 06:22:55 10° ENE visible
25 Oct -3.1 05:31:26 45° SSE 05:31:51 49° SE 05:35:07 10° ENE visible
26 Oct -0.8 04:46:05 17° E 04:46:05 17° E 04:47:09 10° ENE visible
26 Oct -3.2 06:19:03 21° W 06:20:54 41° NNW 06:24:07 10° NE visible
27 Oct -3.3 05:33:34 53° NNE 05:33:34 53° NNE 05:36:26 10° NE visible
28 Oct -0.7 04:47:59 15° ENE 04:47:59 15° ENE 04:48:41 10° ENE visible
28 Oct -2.3 06:20:57 18° NW 06:22:26 24° NNW 06:25:14 10° NE visible
29 Oct -2.2 05:35:17 27° N 05:35:17 27° N 05:37:32 10° NE visible
